Lid_Strength_Index
8 11 13 11 10 11 12 12 13 12 11 12 10 9 7 7 7 6 5 5 5 4 3 2 2 1 1 1 1 1 1 0 0 1 1 1 1 0 1 1 -0 -0 -0 -1
10 13 10 9 10 11 11 13 13 12 12 13 12 12 10 8 7 7 6 5 5 4 3 3 2 2 1 1 1 1 1 1 1 2 1 1 1 1 1 0 1 1 0 -1
11 10 9 9 11 12 12 12 12 13 13 12 13 13 11 9 8 8 8 7 6 6 5 4 3 2 1 1 1 1 1 2 2 2 3 3 2 1 2 2 2 2 2 1
11 10 10 10 11 11 14 12 12 14 14 15 12 16 11 9 10 9 9 8 7 6 6 5 5 4 3 3 2 2 2 2 2 2 3 3 3 4 3 2 2 3 3 2
12 11 11 11 11 10 11 11 12 13 14 14 14 15 13 10 12 11 9 9 8 7 7 7 6 5 4 3 2 2 3 3 2 3 3 3 3 2 2 2 3 3 4 4
12 9 10 10 10 9 10 11 11 12 13 18 14 15 14 12 12 11 10 10 9 9 8 7 7 7 6 5 5 4 4 4 3 4 4 4 3 3 3 4 4 4 4 5
12 12 10 9 11 10 11 13 17 18 18 18 15 15 14 12 11 11 11 10 10 9 8 8 8 7 7 6 6 6 5 5 5 5 5 4 4 3 3 4 4 4 5 6
16 17 12 10 11 12 12 13 15 20 19 17 16 18 15 11 10 10 10 9 9 8 7 7 7 7 7 6 6 6 6 6 6 6 6 5 4 3 3 3 4 5 5 6
14 14 10 9 9 10 13 15 13 16 18 18 16 15 12 11 11 10 10 9 9 8 7 6 6 6 6 6 6 7 6 7 6 7 6 5 5 4 4 4 4 4 5 7
10 15 10 9 8 9 11 11 16 14 19 21 19 17 17 13 12 11 10 9 8 8 7 6 6 5 6 6 6 6 6 6 6 7 6 6 5 5 4 4 5 6 7 8
9 11 13 10 12 12 12 13 12 13 14 18 20 17 12 12 11 11 10 9 8 7 6 6 5 5 5 6 6 6 6 6 6 6 6 6 6 6 6 6 6 7 8 8
11 11 15 13 9 8 10 12 12 15 16 15 16 17 11 10 10 9 9 8 7 7 6 5 5 5 5 5 5 6 6 6 6 6 7 7 7 7 7 7 7 8 9 9
10 13 17 16 12 10 11 10 10 11 12 15 17 15 10 9 9 8 8 7 6 6 6 5 4 4 4 4 5 5 5 6 6 7 7 8 8 8 8 8 8 9 9 9
9 12 14 16 15 12 13 11 10 10 15 14 13 12 10 9 8 7 6 6 6 5 5 5 5 4 3 4 4 4 4 5 6 6 7 8 8 8 8 8 9 9 9 10
10 14 12 13 12 12 12 12 11 12 11 14 12 11 9 8 7 7 6 6 6 6 5 5 5 4 3 3 3 4 4 4 5 6 7 7 7 8 9 9 9 10 10 10
10 13 12 14 12 12 13 11 11 11 11 11 11 11 7 6 6 7 7 7 7 6 5 5 5 4 4 4 4 4 4 4 5 6 7 7 8 9 9 10 10 11 11 11
12 12 13 15 12 12 15 12 11 10 9 10 12 9 7 7 8 8 7 7 7 7 7 6 6 5 4 3 3 3 3 3 5 6 6 7 8 9 10 10 11 11 11 11
13 12 13 15 15 18 11 10 10 10 9 8 8 8 8 9 9 8 6 7 8 7 6 6 5 5 4 4 4 4 3 4 5 6 6 7 8 8 9 10 11 11 12 12
10 12 15 16 15 14 13 12 12 12 12 9 10 10 10 9 8 8 6 6 7 6 6 6 5 5 5 5 5 5 5 5 5 6 7 7 8 9 10 11 11 11 11 11
11 11 13 16 17 18 13 11 9 9 15 10 10 10 10 9 12 9 7 6 6 6 6 6 6 6 6 6 7 8 8 7 7 7 7 8 8 9 10 10 11 11 11 12
14 14 16 15 16 14 10 9 7 16 14 10 10 10 10 10 9 8 7 7 6 7 7 6 7 8 7 7 9 10 9 9 8 9 10 10 10 10 10 10 11 12 12 12
13 15 15 15 17 18 9 10 13 10 8 9 9 9 9 8 8 8 7 8 8 8 8 8 9 9 8 8 9 10 10 9 10 11 11 11 12 11 11 11 12 12 12 13
13 10 12 12 12 8 8 8 7 8 10 9 9 8 8 9 9 8 8 8 8 9 9 9 10 11 10 9 10 11 10 10 12 13 13 13 13 12 12 12 13 13 13 13
11 9 11 11 9 9 8 7 7 8 9 8 8 8 9 10 9 10 10 10 11 10 11 11 12 12 12 11 11 11 11 12 12 12 12 13 14 13 13 13 12 13 13 13
10 10 11 11 10 9 9 9 8 8 9 9 9 10 11 11 11 11 12 12 12 12 13 13 14 13 13 12 12 12 12 13 14 13 13 13 13 13 14 13 13 13 12 12
11 12 13 13 10 10 10 9 9 10 11 11 12 12 12 12 13 13 14 14 14 14 15 15 15 15 15 15 15 14 14 14 15 14 13 13 13 13 13 14 14 11 11 11